Year,Month,Day,Hour,Minute,Value (Times are PST for temperature in C)
2009,05,21,00,00,7.90
2009,05,21,00,01,7.90
2009,05,21,00,02,7.90
2009,05,21,00,03,7.90
2009,05,21,00,04,7.90
2009,05,21,00,05,7.90
2009,05,21,00,06,7.90
2009,05,21,00,07,7.90
2009,05,21,00,08,8.00
2009,05,21,00,09,8.00
2009,05,21,00,10,8.00
2009,05,21,00,11,8.00
2009,05,21,00,12,8.00
2009,05,21,00,13,8.00
2009,05,21,00,14,8.00
2009,05,21,00,15,8.00
2009,05,21,00,16,8.00
2009,05,21,00,17,7.90
2009,05,21,00,18,7.90
2009,05,21,00,19,7.90
2009,05,21,00,20,7.90
2009,05,21,00,21,7.90
2009,05,21,00,22,7.90
2009,05,21,00,23,7.80
2009,05,21,00,24,7.80
2009,05,21,00,25,7.80
2009,05,21,00,26,7.80
2009,05,21,00,27,7.80
2009,05,21,00,28,7.80
2009,05,21,00,29,7.80
2009,05,21,00,30,7.80
2009,05,21,00,31,7.80
2009,05,21,00,32,7.70
2009,05,21,00,33,7.70
2009,05,21,00,34,7.70
2009,05,21,00,35,7.70
2009,05,21,00,36,7.70
2009,05,21,00,37,7.70
2009,05,21,00,38,7.70
2009,05,21,00,39,7.70
2009,05,21,00,40,7.70
2009,05,21,00,41,7.70
2009,05,21,00,42,7.70
2009,05,21,00,43,7.70
2009,05,21,00,44,7.60
2009,05,21,00,45,7.60
2009,05,21,00,46,7.60
2009,05,21,00,47,7.60
2009,05,21,00,48,7.60
2009,05,21,00,49,7.60
2009,05,21,00,50,7.60
2009,05,21,00,51,7.60
2009,05,21,00,52,7.60
2009,05,21,00,53,7.60
2009,05,21,00,54,7.60
2009,05,21,00,55,7.60
2009,05,21,00,56,7.60
2009,05,21,00,57,7.50
2009,05,21,00,58,7.50
2009,05,21,00,59,7.50
2009,05,21,01,00,7.40
2009,05,21,01,01,7.40
2009,05,21,01,02,7.40
2009,05,21,01,03,7.40
2009,05,21,01,04,7.40
2009,05,21,01,05,7.40
2009,05,21,01,06,7.30
2009,05,21,01,07,7.30
2009,05,21,01,08,7.30
2009,05,21,01,09,7.30
2009,05,21,01,10,7.30
2009,05,21,01,11,7.30
2009,05,21,01,12,7.30
2009,05,21,01,13,7.30
2009,05,21,01,14,7.30
2009,05,21,01,15,7.30
2009,05,21,01,16,7.30
2009,05,21,01,17,7.30
2009,05,21,01,18,7.30
2009,05,21,01,19,7.30
2009,05,21,01,20,7.30
2009,05,21,01,21,7.30
2009,05,21,01,22,7.30
2009,05,21,01,23,7.30
2009,05,21,01,24,7.30
2009,05,21,01,25,7.30
2009,05,21,01,26,7.30
2009,05,21,01,27,7.30
2009,05,21,01,28,7.30
2009,05,21,01,29,7.30
2009,05,21,01,30,7.30
2009,05,21,01,31,7.30
2009,05,21,01,32,7.30
2009,05,21,01,33,7.20
2009,05,21,01,34,7.20
2009,05,21,01,35,7.20
2009,05,21,01,36,7.20
2009,05,21,01,37,7.20
2009,05,21,01,38,7.20
2009,05,21,01,39,7.20
2009,05,21,01,40,7.20
2009,05,21,01,41,7.10
2009,05,21,01,42,7.10
2009,05,21,01,43,7.10
2009,05,21,01,44,7.10
2009,05,21,01,45,7.10
2009,05,21,01,46,7.10
2009,05,21,01,47,7.10
2009,05,21,01,48,7.10
2009,05,21,01,49,7.10
2009,05,21,01,50,7.00
2009,05,21,01,51,7.00
2009,05,21,01,52,7.00
2009,05,21,01,53,7.00
2009,05,21,01,54,7.00
2009,05,21,01,55,7.00
2009,05,21,01,56,7.00
2009,05,21,01,57,7.00
2009,05,21,01,58,7.00
2009,05,21,01,59,6.90
2009,05,21,02,00,6.90
2009,05,21,02,01,6.90
2009,05,21,02,02,6.90
2009,05,21,02,03,6.90
2009,05,21,02,04,6.90
2009,05,21,02,05,6.90
2009,05,21,02,06,6.90
2009,05,21,02,07,6.90
2009,05,21,02,08,6.90
2009,05,21,02,09,6.90
2009,05,21,02,10,6.90
2009,05,21,02,11,6.90
2009,05,21,02,12,6.90
2009,05,21,02,13,6.90
2009,05,21,02,14,6.90
2009,05,21,02,15,6.90
2009,05,21,02,16,6.90
2009,05,21,02,17,6.90
2009,05,21,02,18,6.90
2009,05,21,02,19,6.90
2009,05,21,02,20,6.80
2009,05,21,02,21,6.80
2009,05,21,02,22,6.80
2009,05,21,02,23,6.80
2009,05,21,02,24,6.80
2009,05,21,02,25,6.80
2009,05,21,02,26,6.80
2009,05,21,02,27,6.80
2009,05,21,02,28,6.80
2009,05,21,02,29,6.80
2009,05,21,02,30,6.80
2009,05,21,02,31,6.80
2009,05,21,02,32,6.80
2009,05,21,02,33,6.80
2009,05,21,02,34,6.80
2009,05,21,02,35,6.80
2009,05,21,02,36,6.80
2009,05,21,02,37,6.80
2009,05,21,02,38,6.80
2009,05,21,02,39,6.80
2009,05,21,02,40,6.80
2009,05,21,02,41,6.80
2009,05,21,02,42,6.90
2009,05,21,02,43,6.90
2009,05,21,02,44,6.90
2009,05,21,02,45,6.90
2009,05,21,02,46,6.90
2009,05,21,02,47,6.90
2009,05,21,02,48,6.90
2009,05,21,02,49,7.00
2009,05,21,02,50,7.00
2009,05,21,02,51,7.00
2009,05,21,02,52,7.10
2009,05,21,02,53,7.10
2009,05,21,02,54,7.10
2009,05,21,02,55,7.10
2009,05,21,02,56,7.10
2009,05,21,02,57,7.10
2009,05,21,02,58,7.10
2009,05,21,02,59,7.10
2009,05,21,03,00,7.10
2009,05,21,03,01,7.10
2009,05,21,03,02,7.10
2009,05,21,03,03,7.10
2009,05,21,03,04,7.20
2009,05,21,03,05,7.20
2009,05,21,03,06,7.20
2009,05,21,03,07,7.30
2009,05,21,03,08,7.30
2009,05,21,03,09,7.30
2009,05,21,03,10,7.30
2009,05,21,03,11,7.40
2009,05,21,03,12,7.40
2009,05,21,03,13,7.30
2009,05,21,03,14,7.30
2009,05,21,03,15,7.30
2009,05,21,03,16,7.30
2009,05,21,03,17,7.20
2009,05,21,03,18,7.20
2009,05,21,03,19,7.20
2009,05,21,03,20,7.20
2009,05,21,03,21,7.20
2009,05,21,03,22,7.20
2009,05,21,03,23,7.20
2009,05,21,03,24,7.10
2009,05,21,03,25,7.10
2009,05,21,03,26,7.10
2009,05,21,03,27,7.10
2009,05,21,03,28,7.10
2009,05,21,03,29,7.10
2009,05,21,03,30,7.20
2009,05,21,03,31,7.20
2009,05,21,03,32,7.20
2009,05,21,03,33,7.20
2009,05,21,03,34,7.20
2009,05,21,03,35,7.20
2009,05,21,03,36,7.20
2009,05,21,03,37,7.20
2009,05,21,03,38,7.20
2009,05,21,03,39,7.20
2009,05,21,03,40,7.20
2009,05,21,03,41,7.20
2009,05,21,03,42,7.20
2009,05,21,03,43,7.20
2009,05,21,03,44,7.20
2009,05,21,03,45,7.20
2009,05,21,03,46,7.30
2009,05,21,03,47,7.30
2009,05,21,03,48,7.30
2009,05,21,03,49,7.40
2009,05,21,03,50,7.40
2009,05,21,03,51,7.40
2009,05,21,03,52,7.40
2009,05,21,03,53,7.40
2009,05,21,03,54,7.40
2009,05,21,03,55,7.40
2009,05,21,03,56,7.40
2009,05,21,03,57,7.40
2009,05,21,03,58,7.40
2009,05,21,03,59,7.30
2009,05,21,04,00,7.30
2009,05,21,04,01,7.30
2009,05,21,04,02,7.30
2009,05,21,04,03,7.30
2009,05,21,04,10,7.10
2009,05,21,04,11,7.10
2009,05,21,04,12,7.10
2009,05,21,04,13,7.00
2009,05,21,04,14,7.00
2009,05,21,04,15,7.00
2009,05,21,04,16,6.90
2009,05,21,04,17,7.00
2009,05,21,04,18,6.90
2009,05,21,04,19,6.90
2009,05,21,04,20,7.00
2009,05,21,04,21,7.00
2009,05,21,04,22,6.90
2009,05,21,04,23,6.90
2009,05,21,04,24,7.00
2009,05,21,04,25,7.00
2009,05,21,04,26,7.00
2009,05,21,04,27,7.00
2009,05,21,04,28,7.00
2009,05,21,04,29,7.10
2009,05,21,04,30,7.10
2009,05,21,04,31,7.10
2009,05,21,04,32,7.10
2009,05,21,04,33,7.10
2009,05,21,04,34,7.10
2009,05,21,04,35,7.10
2009,05,21,04,36,7.10
2009,05,21,04,37,7.10
2009,05,21,04,38,7.10
2009,05,21,04,39,7.10
2009,05,21,04,40,7.10
2009,05,21,04,41,7.10
2009,05,21,04,42,7.10
2009,05,21,04,43,7.00
2009,05,21,04,44,7.00
2009,05,21,04,45,7.00
2009,05,21,04,46,7.00
2009,05,21,04,47,7.00
2009,05,21,04,48,6.90
2009,05,21,04,49,6.90
2009,05,21,04,50,6.90
2009,05,21,04,51,6.90
2009,05,21,04,52,6.90
2009,05,21,04,53,6.90
2009,05,21,04,54,6.90
2009,05,21,04,55,6.90
2009,05,21,04,56,6.90
2009,05,21,04,57,6.90
2009,05,21,04,58,6.90
2009,05,21,04,59,6.90
2009,05,21,05,00,6.80
2009,05,21,05,01,6.80
2009,05,21,05,02,6.80
2009,05,21,05,03,6.80
2009,05,21,05,04,6.80
2009,05,21,05,05,6.80
2009,05,21,05,06,6.80
2009,05,21,05,07,6.80
2009,05,21,05,08,6.80
2009,05,21,05,09,6.70
2009,05,21,05,10,6.70
2009,05,21,05,11,6.70
2009,05,21,05,12,6.70
2009,05,21,05,13,6.70
2009,05,21,05,14,6.60
2009,05,21,05,15,6.60
2009,05,21,05,16,6.60
2009,05,21,05,17,6.60
2009,05,21,05,18,6.60
2009,05,21,05,19,6.60
2009,05,21,05,20,6.60
2009,05,21,05,21,6.50
2009,05,21,05,22,6.50
2009,05,21,05,23,6.50
2009,05,21,05,24,6.50
2009,05,21,05,25,6.50
2009,05,21,05,26,6.50
2009,05,21,05,27,6.40
2009,05,21,05,28,6.40
2009,05,21,05,29,6.40
2009,05,21,05,30,6.40
2009,05,21,05,31,6.40
2009,05,21,05,32,6.40
2009,05,21,05,33,6.40
2009,05,21,05,34,6.40
2009,05,21,05,35,6.40
2009,05,21,05,36,6.40
2009,05,21,05,37,6.40
2009,05,21,05,38,6.40
2009,05,21,05,39,6.40
2009,05,21,05,40,6.30
2009,05,21,05,41,6.30
2009,05,21,05,42,6.30
2009,05,21,05,43,6.30
2009,05,21,05,44,6.30
2009,05,21,05,45,6.30
2009,05,21,05,46,6.30
2009,05,21,05,47,6.30
2009,05,21,05,48,6.30
2009,05,21,05,49,6.30
2009,05,21,05,50,6.30
2009,05,21,05,51,6.30
2009,05,21,05,52,6.30
2009,05,21,05,53,6.30
2009,05,21,05,54,6.30
2009,05,21,05,55,6.30
2009,05,21,05,56,6.30
2009,05,21,05,57,6.30
2009,05,21,05,58,6.30
2009,05,21,05,59,6.40
2009,05,21,06,00,6.40
2009,05,21,06,01,6.40
2009,05,21,06,02,6.40
2009,05,21,06,03,6.40
2009,05,21,06,04,6.50
2009,05,21,06,05,6.50
2009,05,21,06,06,6.50
2009,05,21,06,07,6.60
2009,05,21,06,08,6.60
2009,05,21,06,09,6.60
2009,05,21,06,10,6.70
2009,05,21,06,11,6.70
2009,05,21,06,12,6.70
2009,05,21,06,13,6.70
2009,05,21,06,14,6.70
2009,05,21,06,15,6.70
2009,05,21,06,16,6.70
2009,05,21,06,17,6.70
2009,05,21,06,18,6.70
2009,05,21,06,19,6.80
2009,05,21,06,20,6.80
2009,05,21,06,21,6.80
2009,05,21,06,22,6.80
2009,05,21,06,23,6.80
2009,05,21,06,24,6.90
2009,05,21,06,25,6.90
2009,05,21,06,26,7.00
2009,05,21,06,27,7.00
2009,05,21,06,28,7.00
2009,05,21,06,29,7.10
2009,05,21,06,30,7.10
2009,05,21,06,31,7.10
2009,05,21,06,32,7.20
2009,05,21,06,33,7.20
2009,05,21,06,34,7.20
2009,05,21,06,35,7.20
2009,05,21,06,36,7.20
2009,05,21,06,37,7.30
2009,05,21,06,38,7.30
2009,05,21,06,39,7.30
2009,05,21,06,40,7.30
2009,05,21,06,41,7.30
2009,05,21,06,42,7.40
2009,05,21,06,43,7.40
2009,05,21,06,44,7.40
2009,05,21,06,45,7.50
2009,05,21,06,46,7.60
2009,05,21,06,47,7.60
2009,05,21,06,48,7.70
2009,05,21,06,49,7.70
2009,05,21,06,50,7.70
2009,05,21,06,51,7.80
2009,05,21,06,52,7.80
2009,05,21,06,53,7.90
2009,05,21,06,54,7.90
2009,05,21,06,55,7.90
2009,05,21,06,56,8.00
2009,05,21,06,57,8.00
2009,05,21,06,58,8.10
2009,05,21,06,59,8.10
2009,05,21,07,00,8.10
2009,05,21,07,01,8.20
2009,05,21,07,02,8.20
2009,05,21,07,03,8.20
2009,05,21,07,04,8.30
2009,05,21,07,05,8.30
2009,05,21,07,06,8.40
2009,05,21,07,07,8.40
2009,05,21,07,08,8.40
2009,05,21,07,09,8.50
2009,05,21,07,10,8.50
2009,05,21,07,11,8.60
2009,05,21,07,12,8.60
2009,05,21,07,13,8.70
2009,05,21,07,14,8.70
2009,05,21,07,15,8.80
2009,05,21,07,16,8.80
2009,05,21,07,17,8.80
2009,05,21,07,18,8.80
2009,05,21,07,19,8.90
2009,05,21,07,20,8.90
2009,05,21,07,21,8.90
2009,05,21,07,22,8.90
2009,05,21,07,23,9.00
2009,05,21,07,24,9.00
2009,05,21,07,25,9.00
2009,05,21,07,26,9.10
2009,05,21,07,27,9.10
2009,05,21,07,28,9.10
2009,05,21,07,29,9.10
2009,05,21,07,30,9.20
2009,05,21,07,31,9.20
2009,05,21,07,32,9.30
2009,05,21,07,33,9.30
2009,05,21,07,34,9.30
2009,05,21,07,35,9.40
2009,05,21,07,36,9.40
2009,05,21,07,37,9.40
2009,05,21,07,38,9.40
2009,05,21,07,39,9.50
2009,05,21,07,40,9.50
2009,05,21,07,41,9.60
2009,05,21,07,42,9.60
2009,05,21,07,43,9.70
2009,05,21,07,44,9.80
2009,05,21,07,45,9.80
2009,05,21,07,46,9.80
2009,05,21,07,47,9.80
2009,05,21,07,48,9.80
2009,05,21,07,49,9.90
2009,05,21,07,50,9.90
2009,05,21,07,51,9.90
2009,05,21,07,52,10.00
2009,05,21,07,53,10.00
2009,05,21,07,54,10.10
2009,05,21,07,55,10.10
2009,05,21,07,56,10.10
2009,05,21,07,57,10.10
2009,05,21,07,58,10.10
2009,05,21,07,59,10.20
2009,05,21,08,00,10.20
2009,05,21,08,01,10.20
2009,05,21,08,02,10.30
2009,05,21,08,03,10.30
2009,05,21,08,04,10.30
2009,05,21,08,05,10.40
2009,05,21,08,06,10.40
2009,05,21,08,07,10.40
2009,05,21,08,08,10.40
2009,05,21,08,09,10.40
2009,05,21,08,10,10.40
2009,05,21,08,11,10.40
2009,05,21,08,12,10.50
2009,05,21,08,13,10.50
2009,05,21,08,14,10.60
2009,05,21,08,15,10.60
2009,05,21,08,16,10.60
2009,05,21,08,17,10.60
2009,05,21,08,18,10.60
2009,05,21,08,19,10.70
2009,05,21,08,20,10.70
2009,05,21,08,21,10.70
2009,05,21,08,22,10.70
2009,05,21,08,23,10.70
2009,05,21,08,24,10.70
2009,05,21,08,25,10.70
2009,05,21,08,26,10.60
2009,05,21,08,27,10.60
2009,05,21,08,28,10.50
2009,05,21,08,29,10.50
2009,05,21,08,30,10.50
2009,05,21,08,31,10.50
2009,05,21,08,32,10.50
2009,05,21,08,33,10.60
2009,05,21,08,34,10.60
2009,05,21,08,35,10.60
2009,05,21,08,36,10.60
2009,05,21,08,37,10.70
2009,05,21,08,38,10.70
2009,05,21,08,39,10.70
2009,05,21,08,40,10.80
2009,05,21,08,41,10.80
2009,05,21,08,42,10.90
2009,05,21,08,43,10.90
2009,05,21,08,44,11.00
2009,05,21,08,45,11.00
2009,05,21,08,46,11.00
2009,05,21,08,47,11.10
2009,05,21,08,48,11.10
2009,05,21,08,49,11.00
2009,05,21,08,50,11.00
2009,05,21,08,51,11.00
2009,05,21,08,52,11.00
2009,05,21,08,53,11.10
2009,05,21,08,54,11.10
2009,05,21,08,55,11.10
2009,05,21,08,56,11.10
2009,05,21,08,57,11.10
2009,05,21,08,58,11.20
2009,05,21,08,59,11.20
2009,05,21,09,00,11.20
2009,05,21,09,01,11.30
2009,05,21,09,02,11.30
2009,05,21,09,03,11.30
2009,05,21,09,04,11.30
2009,05,21,09,05,11.20
2009,05,21,09,06,11.20
2009,05,21,09,07,11.10
2009,05,21,09,08,11.10
2009,05,21,09,09,11.10
2009,05,21,09,10,11.10
2009,05,21,09,11,11.10
2009,05,21,09,12,11.10
2009,05,21,09,13,11.10
2009,05,21,09,14,11.10
2009,05,21,09,15,11.20
2009,05,21,09,16,11.20
2009,05,21,09,17,11.20
2009,05,21,09,18,11.20
2009,05,21,09,19,11.20
2009,05,21,09,20,11.30
2009,05,21,09,21,11.30
2009,05,21,09,22,11.40
2009,05,21,09,23,11.50
2009,05,21,09,24,11.50
2009,05,21,09,25,11.50
2009,05,21,09,26,11.50
2009,05,21,09,27,11.50
2009,05,21,09,28,11.60
2009,05,21,09,29,11.60
2009,05,21,09,30,11.70
2009,05,21,09,31,11.70
2009,05,21,09,32,11.70
2009,05,21,09,33,11.70
2009,05,21,09,34,11.70
2009,05,21,09,35,11.60
2009,05,21,09,36,11.60
2009,05,21,09,37,11.60
2009,05,21,09,38,11.60
2009,05,21,09,39,11.50
2009,05,21,09,40,11.50
2009,05,21,09,41,11.60
2009,05,21,09,42,11.60
2009,05,21,09,43,11.70
2009,05,21,09,44,11.70
2009,05,21,09,45,11.80
2009,05,21,09,46,11.80
2009,05,21,09,47,11.90
2009,05,21,09,48,12.00
2009,05,21,09,49,12.10
2009,05,21,09,50,12.10
2009,05,21,09,51,12.10
2009,05,21,09,52,12.20
2009,05,21,09,53,12.20
2009,05,21,09,54,12.20
2009,05,21,09,55,12.20
2009,05,21,09,56,12.20
2009,05,21,09,57,12.20
2009,05,21,09,58,12.20
2009,05,21,09,59,12.20
2009,05,21,10,00,12.20
2009,05,21,10,01,12.30
2009,05,21,10,02,12.40
2009,05,21,10,03,12.50
2009,05,21,10,04,12.60
2009,05,21,10,05,12.60
2009,05,21,10,06,12.60
2009,05,21,10,07,12.60
2009,05,21,10,08,12.50
2009,05,21,10,09,12.60
2009,05,21,10,10,12.60
2009,05,21,10,11,12.70
2009,05,21,10,12,12.70
2009,05,21,10,13,12.80
2009,05,21,10,14,12.90
2009,05,21,10,15,13.00
2009,05,21,10,16,13.00
2009,05,21,10,17,12.90
2009,05,21,10,18,12.90
2009,05,21,10,19,12.80
2009,05,21,10,20,12.70
2009,05,21,10,21,12.80
2009,05,21,10,22,12.80
2009,05,21,10,23,12.80
2009,05,21,10,24,12.90
2009,05,21,10,25,12.90
2009,05,21,10,26,13.00
2009,05,21,10,27,13.00
2009,05,21,10,28,13.10
2009,05,21,10,29,13.10
2009,05,21,10,30,13.20
2009,05,21,10,31,13.20
2009,05,21,10,32,13.20
2009,05,21,10,33,13.20
2009,05,21,10,34,13.10
2009,05,21,10,35,13.00
2009,05,21,10,36,13.00
2009,05,21,10,37,13.00
2009,05,21,10,38,13.00
2009,05,21,10,39,13.00
2009,05,21,10,40,13.00
2009,05,21,10,41,13.00
2009,05,21,10,42,13.10
2009,05,21,10,43,13.10
2009,05,21,10,44,13.20
2009,05,21,10,45,13.20
2009,05,21,10,46,13.20
2009,05,21,10,47,13.10
2009,05,21,10,48,13.00
2009,05,21,10,49,13.00
2009,05,21,10,50,13.00
2009,05,21,10,51,13.10
2009,05,21,10,52,13.10
2009,05,21,10,53,13.10
2009,05,21,10,54,13.20
2009,05,21,10,55,13.20
2009,05,21,10,56,13.20
2009,05,21,10,57,13.10
2009,05,21,10,58,13.10
2009,05,21,10,59,13.10
2009,05,21,11,00,13.10
2009,05,21,11,01,13.10
2009,05,21,11,02,13.10
2009,05,21,11,03,13.10
2009,05,21,11,04,13.20
2009,05,21,11,05,13.20
2009,05,21,11,06,13.30
2009,05,21,11,07,13.30
2009,05,21,11,08,13.30
2009,05,21,11,09,13.40
2009,05,21,11,10,13.50
2009,05,21,11,11,13.60
2009,05,21,11,12,13.60
2009,05,21,11,13,13.60
2009,05,21,11,14,13.60
2009,05,21,11,15,13.70
2009,05,21,11,16,13.80
2009,05,21,11,17,13.80
2009,05,21,11,18,13.80
2009,05,21,11,19,13.80
2009,05,21,11,20,13.80
2009,05,21,11,21,13.80
2009,05,21,11,22,13.80
2009,05,21,11,23,13.80
2009,05,21,11,24,13.80
2009,05,21,11,25,13.80
2009,05,21,11,26,13.70
2009,05,21,11,27,13.70
2009,05,21,11,28,13.70
2009,05,21,11,29,13.60
2009,05,21,11,30,13.60
2009,05,21,11,31,13.60
2009,05,21,11,32,13.70
2009,05,21,11,33,13.70
2009,05,21,11,34,13.80
2009,05,21,11,35,13.80
2009,05,21,11,36,13.80
2009,05,21,11,37,13.70
2009,05,21,11,38,13.70
2009,05,21,11,39,13.60
2009,05,21,11,40,13.60
2009,05,21,11,41,13.60
2009,05,21,11,42,13.70
2009,05,21,11,43,13.70
2009,05,21,11,44,13.70
2009,05,21,11,45,13.70
2009,05,21,11,46,13.60
2009,05,21,11,47,13.70
2009,05,21,11,48,13.70
2009,05,21,11,49,13.70
2009,05,21,11,50,13.70
2009,05,21,11,51,13.70
2009,05,21,11,52,13.80
2009,05,21,11,53,13.90
2009,05,21,11,54,13.90
2009,05,21,11,55,14.00
2009,05,21,11,56,14.00
2009,05,21,11,57,14.10
2009,05,21,11,58,14.10
2009,05,21,11,59,14.10
2009,05,21,12,00,14.20
2009,05,21,12,01,14.30
2009,05,21,12,02,14.30
2009,05,21,12,03,14.40
2009,05,21,12,04,14.40
2009,05,21,12,05,14.40
2009,05,21,12,06,14.40
2009,05,21,12,07,14.40
2009,05,21,12,08,14.40
2009,05,21,12,09,14.40
2009,05,21,12,10,14.30
2009,05,21,12,11,14.30
2009,05,21,12,12,14.30
2009,05,21,12,13,14.20
2009,05,21,12,14,14.10
2009,05,21,12,15,14.10
2009,05,21,12,16,14.00
2009,05,21,12,17,14.00
2009,05,21,12,18,14.20
2009,05,21,12,19,14.30
2009,05,21,12,20,14.30
2009,05,21,12,21,14.40
2009,05,21,12,22,14.40
2009,05,21,12,23,14.40
2009,05,21,12,24,14.40
2009,05,21,12,25,14.50
2009,05,21,12,26,14.50
2009,05,21,12,27,14.50
2009,05,21,12,28,14.40
2009,05,21,12,29,14.40
2009,05,21,12,30,14.40
2009,05,21,12,31,14.50
2009,05,21,12,32,14.50
2009,05,21,12,33,14.60
2009,05,21,12,34,14.70
2009,05,21,12,35,14.70
2009,05,21,12,36,14.70
2009,05,21,12,37,14.80
2009,05,21,12,38,15.00
2009,05,21,12,39,15.00
2009,05,21,12,40,15.00
2009,05,21,12,41,15.00
2009,05,21,12,42,15.00
2009,05,21,12,43,15.00
2009,05,21,12,44,15.00
2009,05,21,12,45,14.80
2009,05,21,12,46,14.80
2009,05,21,12,47,14.90
2009,05,21,12,48,15.00
2009,05,21,12,49,15.00
2009,05,21,12,50,15.00
2009,05,21,12,51,15.00
2009,05,21,12,52,15.00
2009,05,21,12,53,15.20
2009,05,21,12,54,15.30
2009,05,21,12,55,15.30
2009,05,21,12,56,15.30
2009,05,21,12,57,15.30
2009,05,21,12,58,15.30
2009,05,21,12,59,15.30
2009,05,21,13,00,15.30
2009,05,21,13,01,15.30
2009,05,21,13,02,15.20
2009,05,21,13,03,15.00
2009,05,21,13,04,15.00
2009,05,21,13,05,15.00
2009,05,21,13,06,15.00
2009,05,21,13,07,15.00
2009,05,21,13,08,15.00
2009,05,21,13,09,15.00
2009,05,21,13,10,15.00
2009,05,21,13,11,15.00
2009,05,21,13,12,15.00
2009,05,21,13,13,15.00
2009,05,21,13,14,15.10
2009,05,21,13,15,15.20
2009,05,21,13,16,15.30
2009,05,21,13,17,15.30
2009,05,21,13,18,15.30
2009,05,21,13,19,15.30
2009,05,21,13,20,15.30
2009,05,21,13,21,15.40
2009,05,21,13,22,15.40
2009,05,21,13,23,15.40
2009,05,21,13,24,15.40
2009,05,21,13,25,15.50
2009,05,21,13,26,15.60
2009,05,21,13,27,15.60
2009,05,21,13,28,15.60
2009,05,21,13,29,15.60
2009,05,21,13,30,15.60
2009,05,21,13,31,15.70
2009,05,21,13,32,15.80
2009,05,21,13,33,15.80
2009,05,21,13,34,15.80
2009,05,21,13,35,15.90
2009,05,21,13,36,15.90
2009,05,21,13,37,16.00
2009,05,21,13,38,16.00
2009,05,21,13,39,16.00
2009,05,21,13,40,16.00
2009,05,21,13,41,16.00
2009,05,21,13,42,15.90
2009,05,21,13,43,15.80
2009,05,21,13,44,15.90
2009,05,21,13,45,16.00
2009,05,21,13,46,16.10
2009,05,21,13,47,16.20
2009,05,21,13,48,16.30
2009,05,21,13,49,16.30
2009,05,21,13,50,16.30
2009,05,21,13,51,16.30
2009,05,21,13,52,16.20
2009,05,21,13,53,16.10
2009,05,21,13,54,16.00
2009,05,21,13,55,16.00
2009,05,21,13,56,16.00
2009,05,21,13,57,16.00
2009,05,21,13,58,16.00
2009,05,21,13,59,16.00
2009,05,21,14,00,16.00
2009,05,21,14,01,16.10
2009,05,21,14,02,16.10
2009,05,21,14,03,16.10
2009,05,21,14,04,16.00
2009,05,21,14,05,16.00
2009,05,21,14,06,15.90
2009,05,21,14,07,15.90
2009,05,21,14,08,15.90
2009,05,21,14,09,16.00
2009,05,21,14,10,16.00
2009,05,21,14,11,16.10
2009,05,21,14,12,16.20
2009,05,21,14,13,16.30
2009,05,21,14,14,16.30
2009,05,21,14,15,16.20
2009,05,21,14,16,16.20
2009,05,21,14,17,16.10
2009,05,21,14,18,16.20
2009,05,21,14,19,16.20
2009,05,21,14,20,16.20
2009,05,21,14,21,16.30
2009,05,21,14,22,16.30
2009,05,21,14,23,16.40
2009,05,21,14,24,16.50
2009,05,21,14,25,16.50
2009,05,21,14,26,16.50
2009,05,21,14,27,16.50
2009,05,21,14,28,16.50
2009,05,21,14,29,16.40
2009,05,21,14,30,16.30
2009,05,21,14,31,16.20
2009,05,21,14,32,16.20
2009,05,21,14,33,16.20
2009,05,21,14,34,16.20
2009,05,21,14,35,16.30
2009,05,21,14,36,16.20
2009,05,21,14,37,16.20
2009,05,21,14,38,16.20
2009,05,21,14,39,16.30
2009,05,21,14,40,16.30
2009,05,21,14,41,16.30
2009,05,21,14,42,16.40
2009,05,21,14,43,16.40
2009,05,21,14,44,16.40
2009,05,21,14,45,16.30
2009,05,21,14,46,16.30
2009,05,21,14,47,16.20
2009,05,21,14,48,16.20
2009,05,21,14,49,16.20
2009,05,21,14,50,16.20
2009,05,21,14,51,16.20
2009,05,21,14,52,16.30
2009,05,21,14,53,16.30
2009,05,21,14,54,16.30
2009,05,21,14,55,16.30
2009,05,21,14,56,16.30
2009,05,21,14,57,16.30
2009,05,21,14,58,16.30
2009,05,21,14,59,16.30
2009,05,21,15,00,16.30
2009,05,21,15,01,16.40
2009,05,21,15,02,16.40
2009,05,21,15,03,16.50
2009,05,21,15,04,16.60
2009,05,21,15,05,16.70
2009,05,21,15,06,16.70
2009,05,21,15,07,16.70
2009,05,21,15,08,16.70
2009,05,21,15,09,16.70
2009,05,21,15,10,16.80
2009,05,21,15,11,16.90
2009,05,21,15,12,16.90
2009,05,21,15,13,16.90
2009,05,21,15,14,16.80
2009,05,21,15,15,16.70
2009,05,21,15,16,16.70
2009,05,21,15,17,16.60
2009,05,21,15,18,16.50
2009,05,21,15,19,16.40
2009,05,21,15,20,16.40
2009,05,21,15,21,16.50
2009,05,21,15,22,16.50
2009,05,21,15,23,16.50
2009,05,21,15,24,16.50
2009,05,21,15,25,16.40
2009,05,21,15,26,16.40
2009,05,21,15,27,16.50
2009,05,21,15,28,16.50
2009,05,21,15,29,16.60
2009,05,21,15,30,16.70
2009,05,21,15,31,16.80
2009,05,21,15,32,16.80
2009,05,21,15,33,16.90
2009,05,21,15,34,17.00
2009,05,21,15,35,17.10
2009,05,21,15,36,17.20
2009,05,21,15,37,17.30
2009,05,21,15,38,17.20
2009,05,21,15,39,17.30
2009,05,21,15,40,17.30
2009,05,21,15,41,17.20
2009,05,21,15,42,17.10
2009,05,21,15,43,17.10
2009,05,21,15,44,17.00
2009,05,21,15,45,17.00
2009,05,21,15,46,16.90
2009,05,21,15,47,16.90
2009,05,21,15,48,17.00
2009,05,21,15,49,17.00
2009,05,21,15,50,17.00
2009,05,21,15,51,17.00
2009,05,21,15,52,16.90
2009,05,21,15,53,16.90
2009,05,21,15,54,16.90
2009,05,21,15,55,16.90
2009,05,21,15,56,16.90
2009,05,21,15,57,16.90
2009,05,21,15,58,16.90
2009,05,21,15,59,16.90
2009,05,21,16,00,16.90
2009,05,21,16,01,16.80
2009,05,21,16,02,16.80
2009,05,21,16,03,16.80
2009,05,21,16,04,16.80
2009,05,21,16,05,16.80
2009,05,21,16,06,16.80
2009,05,21,16,07,16.90
2009,05,21,16,08,16.80
2009,05,21,16,09,16.80
2009,05,21,16,10,16.70
2009,05,21,16,11,16.70
2009,05,21,16,12,16.70
2009,05,21,16,13,16.70
2009,05,21,16,14,16.70
2009,05,21,16,15,16.70
2009,05,21,16,16,16.70
2009,05,21,16,17,16.80
2009,05,21,16,18,16.80
2009,05,21,16,19,16.90
2009,05,21,16,20,16.90
2009,05,21,16,21,17.00
2009,05,21,16,22,17.00
2009,05,21,16,23,17.00
2009,05,21,16,24,17.00
2009,05,21,16,25,17.00
2009,05,21,16,26,17.10
2009,05,21,16,27,17.10
2009,05,21,16,28,17.10
2009,05,21,16,29,17.00
2009,05,21,16,30,17.00
2009,05,21,16,31,17.00
2009,05,21,16,32,17.00
2009,05,21,16,33,17.00
2009,05,21,16,34,17.00
2009,05,21,16,35,16.90
2009,05,21,16,36,16.90
2009,05,21,16,37,16.80
2009,05,21,16,38,16.80
2009,05,21,16,39,16.90
2009,05,21,16,40,17.00
2009,05,21,16,41,17.10
2009,05,21,16,42,17.20
2009,05,21,16,43,17.30
2009,05,21,16,44,17.40
2009,05,21,16,45,17.40
2009,05,21,16,46,17.30
2009,05,21,16,47,17.30
2009,05,21,16,48,17.30
2009,05,21,16,49,17.30
2009,05,21,16,50,17.30
2009,05,21,16,51,17.40
2009,05,21,16,52,17.40
2009,05,21,16,53,17.30
2009,05,21,16,54,17.30
2009,05,21,16,55,17.30
2009,05,21,16,56,17.20
2009,05,21,16,57,17.20
2009,05,21,16,58,17.10
2009,05,21,16,59,17.10
2009,05,21,17,00,17.20
2009,05,21,17,01,17.20
2009,05,21,17,02,17.10
2009,05,21,17,03,17.10
2009,05,21,17,04,17.00
2009,05,21,17,05,17.00
2009,05,21,17,06,16.90
2009,05,21,17,07,16.90
2009,05,21,17,08,16.80
2009,05,21,17,09,16.80
2009,05,21,17,10,16.90
2009,05,21,17,11,17.00
2009,05,21,17,12,17.10
2009,05,21,17,13,17.20
2009,05,21,17,14,17.20
2009,05,21,17,15,17.30
2009,05,21,17,16,17.30
2009,05,21,17,17,17.30
2009,05,21,17,18,17.30
2009,05,21,17,19,17.30
2009,05,21,17,20,17.30
2009,05,21,17,21,17.30
2009,05,21,17,22,17.30
2009,05,21,17,23,17.30
2009,05,21,17,24,17.30
2009,05,21,17,25,17.40
2009,05,21,17,26,17.50
2009,05,21,17,27,17.50
2009,05,21,17,28,17.50
2009,05,21,17,29,17.50
2009,05,21,17,30,17.50
2009,05,21,17,31,17.50
2009,05,21,17,32,17.50
2009,05,21,17,33,17.60
2009,05,21,17,34,17.60
2009,05,21,17,35,17.60
2009,05,21,17,36,17.50
2009,05,21,17,37,17.50
2009,05,21,17,38,17.60
2009,05,21,17,39,17.60
2009,05,21,17,40,17.60
2009,05,21,17,41,17.70
2009,05,21,17,42,17.70
2009,05,21,17,43,17.70
2009,05,21,17,44,17.70
2009,05,21,17,45,17.80